| time (UTC) | temp F | wind direction | speed knots | gust knots | rain 1hr in | rain 24hr in | rain mn in | humidity % | barometer mb |
| 20260504192030 | 81 | 213 | 7.0 | 11.3 | 0.00 | 0.00 | 0.00 | 44 | 1012.6 |
| 20260504191527 | 82 | 184 | 0.0 | 7.0 | 0.00 | 0.00 | 0.00 | 44 | 1012.5 |
| 20260504191023 | 83 | 141 | 0.9 | 5.2 | 0.00 | 0.00 | 0.00 | 43 | 1012.5 |
| 20260504190520 | 82 | 161 | 0.9 | 2.6 | 0.00 | 0.00 | 0.00 | 44 | 1012.4 |
| 20260504190015 | 82 | 5 | 0.0 | 6.1 | 0.00 | 0.00 | 0.00 | 44 | 1012.4 |
| 20260504185513 | 83 | 165 | 4.3 | 9.6 | 0.00 | 0.00 | 0.00 | 43 | 1012.6 |
| 20260504185009 | 83 | 148 | 2.6 | 11.3 | 0.00 | 0.00 | 0.00 | 42 | 1012.7 |
| 20260504184504 | 82 | 224 | 1.7 | 8.7 | 0.00 | 0.00 | 0.00 | 46 | 1012.6 |
| 20260504184000 | 83 | 213 | 3.5 | 13.0 | 0.00 | 0.00 | 0.00 | 45 | 1012.6 |
| 20260504183457 | 82 | 159 | 0.9 | 3.5 | 0.00 | 0.00 | 0.00 | 43 | 1012.6 |
| 20260504182955 | 80 | 27 | 0.0 | 7.0 | 0.00 | 0.00 | 0.00 | 46 | 1012.6 |
| 20260504182452 | 80 | 136 | 5.2 | 7.0 | 0.00 | 0.00 | 0.00 | 46 | 1012.8 |
| 20260504181949 | 81 | 135 | 0.9 | 11.3 | 0.00 | 0.00 | 0.00 | 46 | 1013.0 |
| 20260504181446 | 82 | 275 | 0.0 | 6.1 | 0.00 | 0.00 | 0.00 | 43 | 1013.1 |
| 20260504180945 | 82 | 245 | 2.6 | 3.5 | 0.00 | 0.00 | 0.00 | 44 | 1013.1 |
| 20260504180443 | 82 | 180 | 3.5 | 11.3 | 0.00 | 0.00 | 0.00 | 43 | 1013.1 |
| 20260504175941 | 81 | 211 | 3.5 | 5.2 | 0.00 | 0.00 | 0.00 | 44 | 1013.1 |
| 20260504175438 | 82 | 169 | 3.5 | 7.0 | 0.00 | 0.00 | 0.00 | 44 | 1013.2 |
| 20260504174936 | 81 | 178 | 2.6 | 5.2 | 0.00 | 0.00 | 0.00 | 44 | 1013.1 |
| 20260504174433 | 80 | 219 | 0.0 | 8.7 | 0.00 | 0.00 | 0.00 | 47 | 1013.3 |
| 20260504173930 | 80 | 217 | 2.6 | 11.3 | 0.00 | 0.00 | 0.00 | 46 | 1013.4 |
| 20260504173426 | 81 | 280 | 3.5 | 8.7 | 0.00 | 0.00 | 0.00 | 43 | 1013.5 |
| 20260504172924 | 80 | 287 | 1.7 | 6.1 | 0.00 | 0.00 | 0.00 | 46 | 1013.6 |
| 20260504172420 | 81 | 286 | 2.6 | 12.2 | 0.00 | 0.00 | 0.00 | 44 | 1013.4 |
| 20260504171916 | 80 | 152 | 0.0 | 8.7 | 0.00 | 0.00 | 0.00 | 44 | 1013.5 |
| 20260504171414 | 81 | 170 | 0.9 | 7.0 | 0.00 | 0.00 | 0.00 | 45 | 1013.6 |
| 20260504170911 | 80 | 179 | 2.6 | 9.6 | 0.00 | 0.00 | 0.00 | 45 | 1013.8 |
| 20260504170407 | 79 | 96 | 0.0 | 9.6 | 0.00 | 0.00 | 0.00 | 47 | 1013.8 |
| 20260504160326 | 79 | 228 | 0.9 | 7.0 | 0.00 | 0.00 | 0.00 | 46 | 1014.6 |
| 20260504150750 | 77 | 17 | 7.0 | 14.8 | 0.00 | 0.00 | 0.00 | 48 | 1014.3 |
| 20260504150247 | 76 | 258 | 4.3 | 6.1 | 0.00 | 0.00 | 0.00 | 50 | 1014.5 |
| 20260504141217 | 75 | 143 | 0.9 | 6.1 | 0.00 | 0.00 | 0.00 | 54 | 1014.4 |
| 20260504140714 | 75 | 196 | 0.0 | 2.6 | 0.00 | 0.00 | 0.00 | 54 | 1014.3 |
| 20260504140209 | 75 | 196 | 0.0 | 0.9 | 0.00 | 0.00 | 0.00 | 55 | 1014.1 |
| 20260504130637 | 66 | 136 | 0.0 | 0.0 | 0.00 | 0.00 | 0.00 | 65 | 1014.3 |
| 20260504130134 | 66 | 166 | 0.0 | 0.0 | 0.00 | 0.00 | 0.00 | 66 | 1014.3 |
| 20260504110525 | 57 | 184 | 0.0 | 0.0 | 0.00 | 0.00 | 0.00 | 80 | 1013.9 |
| 20260504100442 | 58 | 188 | 0.0 | 0.0 | 0.00 | 0.00 | 0.00 | 81 | 1014.0 |
| 20260504081835 | 60 | 152 | 0.0 | 0.0 | 0.00 | 0.00 | 0.00 | 72 | 1015.1 |
| 20260504081332 | 60 | 151 | 0.0 | 0.0 | 0.00 | 0.00 | 0.00 | 72 | 1014.5 |
| 20260504080827 | 60 | 151 | 0.0 | 0.0 | 0.00 | 0.00 | 0.00 | 72 | 1015.1 |
| 20260504080325 | 60 | 151 | 0.0 | 0.0 | 0.00 | 0.00 | 0.00 | 70 | 1015.1 |
| 20260504070252 | 63 | 167 | 0.0 | 0.0 | 0.00 | 0.00 | 0.00 | 64 | 1016.0 |
| 20260504060213 | 63 | 134 | 0.0 | 0.0 | 0.00 | 0.00 | 0.00 | 62 | 1016.4 |
| 20260504050640 | 62 | 137 | 0.0 | 0.0 | 0.00 | 0.00 | 0.00 | 63 | 1016.9 |
| 20260504050137 | 62 | 164 | 0.0 | 0.0 | 0.00 | 0.00 | 0.00 | 64 | 1016.7 |
| 20260504045635 | 62 | 184 | 0.0 | 0.0 | 0.00 | 0.00 | 0.00 | 64 | 1016.9 |
| 20260504045134 | 62 | 155 | 0.0 | 0.0 | 0.00 | 0.00 | 0.00 | 64 | 1016.8 |
| 20260504044633 | 62 | 187 | 0.0 | 0.0 | 0.00 | 0.00 | 0.00 | 64 | 1016.9 |
| 20260504044129 | 62 | 171 | 0.0 | 0.0 | 0.00 | 0.00 | 0.00 | 64 | 1017.1 |
| 20260504043626 | 62 | 169 | 0.0 | 0.0 | 0.00 | 0.00 | 0.00 | 64 | 1017.1 |
| 20260504043123 | 62 | 160 | 0.0 | 0.0 | 0.00 | 0.00 | 0.00 | 64 | 1017.0 |
| 20260504042621 | 62 | 161 | 0.0 | 0.0 | 0.00 | 0.00 | 0.00 | 64 | 1017.1 |
| 20260504042117 | 62 | 161 | 0.0 | 0.0 | 0.00 | 0.00 | 0.00 | 63 | 1016.9 |
| 20260504041613 | 62 | 161 | 0.0 | 0.0 | 0.00 | 0.00 | 0.00 | 62 | 1016.8 |
| 20260504041110 | 63 | 161 | 0.0 | 0.0 | 0.00 | 0.00 | 0.00 | 61 | 1016.7 |
| 20260504040607 | 63 | 158 | 0.0 | 0.0 | 0.00 | 0.00 | 0.00 | 61 | 1016.8 |
| 20260504040103 | 62 | 180 | 0.0 | 0.0 | 0.00 | 0.00 | 0.00 | 61 | 1016.8 |
| 20260504035600 | 62 | 170 | 0.0 | 0.0 | 0.00 | 0.00 | 0.00 | 62 | 1017.1 |
| 20260504035056 | 63 | 219 | 0.0 | 0.0 | 0.00 | 0.00 | 0.00 | 63 | 1017.2 |
| 20260504034555 | 63 | 175 | 0.0 | 0.0 | 0.00 | 0.00 | 0.00 | 61 | 1017.1 |
| 20260504034051 | 63 | 175 | 0.0 | 0.0 | 0.00 | 0.00 | 0.00 | 58 | 1017.0 |
| 20260504033549 | 64 | 175 | 0.0 | 0.0 | 0.00 | 0.00 | 0.00 | 57 | 1017.1 |
| 20260504033046 | 64 | 174 | 0.0 | 0.0 | 0.00 | 0.00 | 0.00 | 57 | 1017.1 |
| 20260504032543 | 64 | 177 | 0.0 | 0.0 | 0.00 | 0.00 | 0.00 | 57 | 1017.2 |
| 20260504032040 | 64 | 183 | 0.0 | 0.0 | 0.00 | 0.00 | 0.00 | 57 | 1017.1 |
| 20260504031537 | 64 | 203 | 0.0 | 0.0 | 0.00 | 0.00 | 0.00 | 56 | 1017.0 |
| 20260504031033 | 64 | 218 | 0.0 | 0.0 | 0.00 | 0.00 | 0.00 | 57 | 1017.0 |
| 20260504030531 | 65 | 228 | 0.0 | 0.0 | 0.00 | 0.00 | 0.00 | 56 | 1016.8 |
| 20260504030026 | 66 | 189 | 0.0 | 0.0 | 0.00 | 0.00 | 0.00 | 53 | 1016.9 |
| 20260504025524 | 67 | 177 | 0.0 | 0.0 | 0.00 | 0.00 | 0.00 | 51 | 1016.8 |
| 20260504025020 | 67 | 150 | 0.0 | 0.0 | 0.00 | 0.00 | 0.00 | 49 | 1016.9 |
| 20260504024518 | 67 | 152 | 0.0 | 0.0 | 0.00 | 0.00 | 0.00 | 49 | 1016.9 |
| 20260504024014 | 67 | 98 | 0.0 | 0.0 | 0.00 | 0.00 | 0.00 | 49 | 1016.8 |
| 20260504023511 | 67 | 142 | 0.0 | 0.0 | 0.00 | 0.00 | 0.00 | 50 | 1016.8 |
| 20260504023007 | 67 | 127 | 0.0 | 0.0 | 0.00 | 0.00 | 0.00 | 51 | 1016.9 |
| 20260504022503 | 67 | 159 | 0.0 | 0.0 | 0.00 | 0.00 | 0.00 | 50 | 1016.9 |
| 20260504021959 | 67 | 180 | 0.0 | 0.0 | 0.00 | 0.00 | 0.00 | 50 | 1016.9 |
| 20260504021457 | 67 | 166 | 0.0 | 0.0 | 0.00 | 0.00 | 0.00 | 49 | 1017.0 |
| 20260504020954 | 67 | 211 | 0.0 | 0.0 | 0.00 | 0.00 | 0.00 | 49 | 1016.8 |
| 20260504020450 | 67 | 96 | 0.0 | 0.0 | 0.00 | 0.00 | 0.00 | 50 | 1017.0 |
| 20260504015947 | 67 | 177 | 0.0 | 0.0 | 0.00 | 0.00 | 0.00 | 50 | 1016.8 |
| 20260504015443 | 67 | 165 | 0.0 | 0.0 | 0.00 | 0.00 | 0.00 | 50 | 1017.0 |
| 20260504014939 | 68 | 191 | 0.0 | 0.0 | 0.00 | 0.00 | 0.00 | 50 | 1016.7 |
| 20260504014436 | 68 | 161 | 0.0 | 0.0 | 0.00 | 0.00 | 0.00 | 49 | 1017.0 |
| 20260504013932 | 68 | 219 | 0.0 | 0.0 | 0.00 | 0.00 | 0.00 | 48 | 1017.0 |
| 20260504013431 | 69 | 197 | 0.0 | 0.0 | 0.00 | 0.00 | 0.00 | 46 | 1017.0 |
| 20260504012927 | 69 | 166 | 0.0 | 0.0 | 0.00 | 0.00 | 0.00 | 45 | 1017.0 |
| 20260504012425 | 69 | 167 | 0.0 | 0.0 | 0.00 | 0.00 | 0.00 | 45 | 1016.7 |
| 20260504011922 | 70 | 132 | 0.0 | 0.0 | 0.00 | 0.00 | 0.00 | 44 | 1016.9 |
| 20260504011419 | 70 | 216 | 0.0 | 0.9 | 0.00 | 0.00 | 0.00 | 44 | 1016.8 |
| 20260504010914 | 70 | 156 | 2.6 | 3.5 | 0.00 | 0.00 | 0.00 | 42 | 1016.8 |
| 20260504010411 | 71 | 184 | 0.0 | 0.0 | 0.00 | 0.00 | 0.00 | 42 | 1016.8 |
| 20260504005907 | 71 | 166 | 0.0 | 0.0 | 0.00 | 0.00 | 0.00 | 42 | 1016.7 |
| 20260504005404 | 71 | 134 | 0.0 | 2.6 | 0.00 | 0.00 | 0.00 | 40 | 1016.7 |
| 20260504004902 | 72 | 133 | 0.0 | 2.6 | 0.00 | 0.00 | 0.00 | 39 | 1016.8 |
| 20260504004400 | 72 | 156 | 0.0 | 3.5 | 0.00 | 0.00 | 0.00 | 38 | 1016.9 |
| 20260504003856 | 72 | 133 | 4.3 | 6.1 | 0.00 | 0.00 | 0.00 | 37 | 1016.9 |
| 20260504003352 | 72 | 187 | 1.7 | 6.1 | 0.00 | 0.00 | 0.00 | 37 | 1016.8 |
| 20260504002849 | 73 | 207 | 0.0 | 6.1 | 0.00 | 0.00 | 0.00 | 37 | 1016.7 |
| 20260504002346 | 73 | 198 | 0.0 | 6.1 | 0.00 | 0.00 | 0.00 | 36 | 1016.5 |
| 20260504001843 | 73 | 159 | 0.0 | 2.6 | 0.00 | 0.00 | 0.00 | 36 | 1016.8 |
| 20260504001341 | 74 | 167 | 3.5 | 6.1 | 0.00 | 0.00 | 0.00 | 34 | 1016.7 |
| 20260504000837 | 74 | 171 | 0.0 | 0.0 | 0.00 | 0.00 | 0.00 | 35 | 1016.7 |
| 20260504000334 | 74 | 170 | 3.5 | 6.1 | 0.00 | 0.00 | 0.00 | 32 | 1016.8 |
| 20260503235832 | 74 | 60 | 3.5 | 7.0 | 0.00 | 0.00 | 0.00 | 32 | 1016.7 |
| 20260503235329 | 75 | 142 | 1.7 | 5.2 | 0.00 | 0.00 | 0.00 | 32 | 1016.7 |
| 20260503234827 | 75 | 139 | 0.9 | 5.2 | 0.00 | 0.00 | 0.00 | 32 | 1016.8 |
| 20260503234325 | 75 | 173 | 0.0 | 5.2 | 0.00 | 0.00 | 0.00 | 32 | 1017.0 |
| 20260503233822 | 76 | 144 | 4.3 | 6.1 | 0.00 | 0.00 | 0.00 | 31 | 1017.0 |
| 20260503233318 | 76 | 171 | 0.0 | 8.7 | 0.00 | 0.00 | 0.00 | 31 | 1017.1 |
| 20260503232814 | 76 | 69 | 0.0 | 0.9 | 0.00 | 0.00 | 0.00 | 31 | 1017.0 |
| 20260503232312 | 76 | 114 | 4.3 | 8.7 | 0.00 | 0.00 | 0.00 | 29 | 1017.1 |
| 20260503231810 | 77 | 152 | 0.0 | 5.2 | 0.00 | 0.00 | 0.00 | 30 | 1017.1 |
| 20260503231306 | 76 | 157 | 3.5 | 9.6 | 0.00 | 0.00 | 0.00 | 29 | 1017.2 |
| 20260503230802 | 77 | 89 | 1.7 | 8.7 | 0.00 | 0.00 | 0.00 | 29 | 1017.4 |
| 20260503230300 | 77 | 128 | 0.0 | 3.5 | 0.00 | 0.00 | 0.00 | 28 | 1017.2 |
| 20260503225757 | 77 | 146 | 1.7 | 8.7 | 0.00 | 0.00 | 0.00 | 28 | 1017.3 |
| 20260503225252 | 78 | 187 | 2.6 | 3.5 | 0.00 | 0.00 | 0.00 | 27 | 1017.2 |
| 20260503224749 | 78 | 164 | 4.3 | 7.0 | 0.00 | 0.00 | 0.00 | 27 | 1017.1 |
| 20260503224247 | 77 | 52 | 0.0 | 2.6 | 0.00 | 0.00 | 0.00 | 29 | 1017.4 |
| 20260503223744 | 78 | 170 | 1.7 | 6.1 | 0.00 | 0.00 | 0.00 | 27 | 1017.7 |
| 20260503223242 | 78 | 282 | 0.0 | 9.6 | 0.00 | 0.00 | 0.00 | 30 | 1017.6 |
| 20260503222737 | 78 | 146 | 2.6 | 6.1 | 0.00 | 0.00 | 0.00 | 28 | 1017.8 |
| 20260503222236 | 78 | 170 | 0.0 | 5.2 | 0.00 | 0.00 | 0.00 | 28 | 1017.5 |
| 20260503221734 | 78 | 94 | 5.2 | 7.0 | 0.00 | 0.00 | 0.00 | 28 | 1017.5 |
| 20260503221232 | 78 | 140 | 7.0 | 9.6 | 0.00 | 0.00 | 0.00 | 26 | 1017.6 |
| 20260503220728 | 78 | 174 | 7.8 | 9.6 | 0.00 | 0.00 | 0.00 | 27 | 1017.3 |
| 20260503220225 | 77 | 179 | 0.9 | 3.5 | 0.00 | 0.00 | 0.00 | 29 | 1017.5 |
| 20260503215721 | 78 | 129 | 0.0 | 6.1 | 0.00 | 0.00 | 0.00 | 30 | 1017.4 |
| 20260503215219 | 79 | 172 | 3.5 | 8.7 | 0.00 | 0.00 | 0.00 | 28 | 1017.4 |
| 20260503214717 | 79 | 168 | 0.9 | 5.2 | 0.00 | 0.00 | 0.00 | 26 | 1017.8 |
| 20260503214213 | 79 | 76 | 0.9 | 6.1 | 0.00 | 0.00 | 0.00 | 26 | 1017.8 |
| 20260503213711 | 78 | 75 | 0.9 | 5.2 | 0.00 | 0.00 | 0.00 | 27 | 1017.8 |
| 20260503213208 | 80 | 170 | 6.1 | 7.0 | 0.00 | 0.00 | 0.00 | 24 | 1018.0 |
| 20260503212705 | 80 | 145 | 0.0 | 2.6 | 0.00 | 0.00 | 0.00 | 24 | 1017.9 |
| 20260503212203 | 80 | 241 | 0.9 | 2.6 | 0.00 | 0.00 | 0.00 | 26 | 1018.0 |
| 20260503211700 | 80 | 57 | 1.7 | 2.6 | 0.00 | 0.00 | 0.00 | 25 | 1018.1 |
| 20260503211155 | 80 | 319 | 0.0 | 0.0 | 0.00 | 0.00 | 0.00 | 26 | 1018.0 |
| 20260503210652 | 80 | 175 | 0.0 | 2.6 | 0.00 | 0.00 | 0.00 | 25 | 1018.2 |
| 20260503210149 | 80 | 232 | 0.9 | 3.5 | 0.00 | 0.00 | 0.00 | 24 | 1018.1 |
| 20260503205644 | 80 | 133 | 0.0 | 2.6 | 0.00 | 0.00 | 0.00 | 25 | 1018.2 |
| 20260503205141 | 80 | 138 | 0.0 | 3.5 | 0.00 | 0.00 | 0.00 | 25 | 1018.2 |
| 20260503204638 | 80 | 191 | 0.9 | 5.2 | 0.00 | 0.00 | 0.00 | 25 | 1018.3 |
| 20260503204135 | 80 | 113 | 3.5 | 7.0 | 0.00 | 0.00 | 0.00 | 25 | 1018.2 |
| 20260503203632 | 80 | 122 | 3.5 | 7.0 | 0.00 | 0.00 | 0.00 | 24 | 1018.4 |
| 20260503203129 | 81 | 157 | 1.7 | 3.5 | 0.00 | 0.00 | 0.00 | 23 | 1018.7 |
| 20260503202627 | 81 | 168 | 3.5 | 6.1 | 0.00 | 0.00 | 0.00 | 25 | 1018.6 |
| 20260503202125 | 80 | 4 | 0.0 | 7.0 | 0.00 | 0.00 | 0.00 | 26 | 1018.6 |
| 20260503201622 | 80 | 61 | 2.6 | 12.2 | 0.00 | 0.00 | 0.00 | 25 | 1018.9 |
| 20260503201120 | 80 | 46 | 3.5 | 5.2 | 0.00 | 0.00 | 0.00 | 23 | 1018.9 |
| 20260503200616 | 79 | 30 | 0.0 | 2.6 | 0.00 | 0.00 | 0.00 | 21 | 1018.8 |
| 20260503200112 | 79 | 28 | 3.5 | 5.2 | 0.00 | 0.00 | 0.00 | 21 | 1019.1 |
| 20260503195609 | 79 | 96 | 0.0 | 3.5 | 0.00 | 0.00 | 0.00 | 23 | 1019.2 |
| 20260503195105 | 81 | 67 | 1.7 | 12.2 | 0.00 | 0.00 | 0.00 | 21 | 1019.3 |
| 20260503194603 | 80 | 63 | 1.7 | 5.2 | 0.00 | 0.00 | 0.00 | 23 | 1019.2 |
| 20260503194058 | 80 | 60 | 4.3 | 8.7 | 0.00 | 0.00 | 0.00 | 21 | 1019.0 |
| 20260503193555 | 80 | 71 | 0.0 | 7.0 | 0.00 | 0.00 | 0.00 | 22 | 1019.2 |
| 20260503193050 | 80 | 11 | 0.0 | 0.9 | 0.00 | 0.00 | 0.00 | 22 | 1019.4 |
| 20260503192547 | 81 | 50 | 2.6 | 3.5 | 0.00 | 0.00 | 0.00 | 21 | 1019.5 |